Effective Sunday, March 17, 2024, the National Weather Service National Data Buoy Center will discontinue its Dial-A-Buoy Interactive Voice Response system. For more information, see Service Change Notice 24-06 (PDF).

Station ANVC1 - 9416841 - Arena Cove, CA Image indicating link to RSS feed of recent meteorological observations for station ANVC1


Conditions at ANVC1 as of
(11:00 pm PST on 02/28/2024)
0700 GMT on 02/29/2024:
     

Click on the graph icon in the table below to see a time series plot of the last five days of that observation.

5-day plot - Wind Direction Wind Direction (WDIR): E ( 100 deg true )
5-day plot - Wind Speed Wind Speed (WSPD): 5.1 kts
5-day plot - Wind Gust Wind Gust (GST): 7.0 kts
5-day plot - Atmospheric Pressure Atmospheric Pressure (PRES):30.00 in
5-day plot - Pressure Tendency Pressure Tendency (PTDY):+0.00 in ( Steady )
5-day plot - Air Temperature Air Temperature (ATMP): 50.4 °F
5-day plot - Water Temperature Water Temperature (WTMP): 54.1 °F
5-day plot - Wind Chill Wind Chill (CHILL): 48.2 °F
5-day plot - Wind Speed at 10 Meters Wind Speed at 10 meters (WSPD10M): 5.8 kts
5-day plot - Wind Speed at 20 Meters Wind Speed at 20 meters (WSPD20M): 5.8 kts
5-day plot -  Wind Speed, Wind Gust and Atmospheric Pressure Combined plot of Wind Speed, Gust, and Air Pressure
NOS Water Level Observation Network Water Level
Previous observations
TIME
(PST)
5-day plot - Wind Direction
WDIR
 
5-day plot - Wind Speed
WSPD
kts
5-day plot - Wind Gust
GST
kts
5-day plot - Wave Height
WVHT
ft
5-day plot - Dominant Wave Period
DPD
sec
5-day plot - Average Wave Period
APD
sec
5-day plot - Mean Wave Direction
MWD
 
5-day plot - Atmospheric Pressure
PRES
in
5-day plot - Pressure Tendency
PTDY
in
5-day plot - Air Temperature
ATMP
°F
5-day plot - Water Temperature
WTMP
°F
5-day plot - Dew Point
DEWP
°F
5-day plot - Salinity
SAL
psu
5-day plot - Visibility
VIS
nmi
5-day plot - Tide (above MLLW)
TIDE
ft
2024-02-28 10:48 pm E 6.0 7.0----30.01- 50.2 54.3----
2024-02-28 10:42 pm E 5.1 8.0----30.01- 50.2 54.3----
2024-02-28 10:36 pmESE 7.0 8.0----30.00- 50.2 54.3----
2024-02-28 10:30 pmESE 6.0 8.0----30.00- 50.2 54.3----
2024-02-28 10:18 pm E 5.1 8.0----30.01- 50.2 54.3----
2024-02-28 10:12 pm E 5.1 7.0----30.01- 50.2 54.3----
2024-02-28 10:06 pmESE 5.1 6.0------------
2024-02-28 10:00 pmESE 4.1 6.0----30.01+0.01 50.2 54.3----
2024-02-28 09:54 pmESE 5.1 7.0----30.01- 50.2 54.3----
2024-02-28 09:42 pmESE 4.1 6.0----30.01- 50.4 54.3----
2024-02-28 09:30 pmESE 5.1 6.0----30.01- 50.4 54.3----
2024-02-28 09:24 pmESE 5.1 6.0----30.01- 50.5 54.3----
2024-02-28 09:12 pmESE 2.9 5.1----30.01- 50.5 54.3----
2024-02-28 09:00 pm E 2.9 4.1----30.01+0.00 50.5 54.3----
2024-02-28 08:54 pm E 2.9 5.1----30.01- 50.7 54.5----
2024-02-28 08:48 pmESE 2.9 4.1----30.00- 50.7 54.3----
2024-02-28 08:42 pm E 1.9 2.9----30.00- 50.7 54.3----
2024-02-28 08:36 pm E 1.9 2.9----30.00- 50.7 54.5----
2024-02-28 08:30 pm S 1.9 4.1----30.00- 50.7 54.5----
2024-02-28 08:24 pmSSW 2.9 5.1----30.01- 50.7 54.5----
2024-02-28 08:18 pm S 1.9 5.1----30.00- 50.7 54.5----
2024-02-28 08:12 pmSSW 2.9 5.1----30.01- 50.9 54.5----
2024-02-28 08:06 pm- 0.0 2.9----30.01- 50.7 54.5----
2024-02-28 08:00 pm- 0.0 1.9----30.00+0.00 50.7 54.5----
2024-02-28 07:54 pmWSW 1.0 1.9----30.00- 50.7 54.5----
2024-02-28 07:48 pm- 0.0 1.9----30.00- 50.4 54.5----
2024-02-28 07:42 pmESE 1.0 2.9----30.00- 50.2 54.5----
2024-02-28 07:36 pmESE 1.9 2.9----30.00- 50.5 54.5----
2024-02-28 07:30 pmESE 1.9 2.9----30.00- 50.4 54.5----
2024-02-28 07:24 pmESE 1.9 1.9----30.00- 50.2 54.5----
2024-02-28 07:18 pmESE 1.9 2.9----30.00- 50.4 54.5----
2024-02-28 07:12 pmESE 2.9 4.1----30.00- 50.4 54.5----
2024-02-28 07:06 pmESE 2.9 2.9----30.00- 50.5 54.5----
2024-02-28 07:00 pm E 1.0 1.9----30.00-0.02 50.9 54.5----
2024-02-28 06:54 pm- 0.0 0.0----30.00- 50.9 54.5----
2024-02-28 06:48 pm- 0.0 1.0----30.00- 50.9 54.5----
2024-02-28 06:42 pm- 0.0 1.0----30.00- 51.1 54.5----
2024-02-28 06:36 pm- 0.0 2.9----30.00- 51.1 54.5----
2024-02-28 06:30 pm W 1.9 2.9----30.00- 51.3 54.5----
2024-02-28 06:24 pmWSW 1.9 1.9----30.00- 51.1 54.5----
2024-02-28 06:18 pm- 0.0 1.9----30.00- 51.1 54.5----
2024-02-28 06:12 pm- 0.0 2.9----30.00- 51.3 54.5----
2024-02-28 06:06 pm W 2.9 2.9----30.00- 51.4 54.5----
2024-02-28 06:00 pmWNW 1.9 2.9----30.00- 51.4 54.5----
2024-02-28 05:54 pm- 0.0 1.0----30.00- 51.4 54.5----
2024-02-28 05:48 pmWNW 1.9 2.9----30.00- 51.4 54.5----
2024-02-28 05:42 pm W 1.9 4.1----30.00- 51.6 54.5----
2024-02-28 05:36 pm W 2.9 5.1----30.01- 51.6 54.5----
2024-02-28 05:30 pm W 4.1 6.0----30.01- 52.0 54.7----
2024-02-28 05:24 pm W 5.1 6.0----30.01- 52.0 54.7----
2024-02-28 05:18 pm W 6.0 7.0----30.01- 52.5 54.7----
2024-02-28 05:12 pm W 6.0 6.0----30.01- 52.7 54.7----
2024-02-28 05:06 pmWNW 5.1 7.0----30.01- 52.5 54.5----
2024-02-28 05:00 pmWNW 5.1 8.0----30.01-0.04 52.7 54.7----
2024-02-28 04:54 pm W 4.1 6.0----30.01- 53.1 54.7----
2024-02-28 04:48 pm W 6.0 7.0----30.01- 53.2 54.7----
2024-02-28 04:42 pmWNW 7.0 7.0----30.01- 52.9 54.9----
2024-02-28 04:36 pm W 7.0 9.9----30.01- 53.1 54.7----
2024-02-28 04:30 pm W 8.0 8.9------------
2024-02-28 04:24 pm W 8.0 8.9----30.01- 53.2 54.5----
2024-02-28 04:18 pmWNW 7.0 9.9----30.01- 53.6 54.5----
2024-02-28 04:12 pm W 8.0 8.9----30.01- 54.0 54.3----
2024-02-28 04:06 pm W 6.0 8.0----30.01- 54.0 54.5----
2024-02-28 04:00 pmWNW 5.1 7.0----30.01-0.05 54.0 54.5----
2024-02-28 03:54 pmWNW 5.1 8.9----30.01- 54.0 54.7----
2024-02-28 03:48 pmWNW 5.1 9.9----30.02- 53.8 54.5----
2024-02-28 03:42 pmWNW 8.0 9.9------ 53.6 54.5----
2024-02-28 03:36 pm W 9.9 11.1------ 53.4 55.0----
2024-02-28 03:30 pm W 8.0 11.1------ 53.8 54.3----
2024-02-28 03:24 pm-------30.03-- 55.0----
2024-02-28 03:18 pm-------30.02-- 54.7----
2024-02-28 03:12 pmWNW 8.0 11.1------ 53.8 55.4----
2024-02-28 03:06 pmWNW 8.9 13.0------ 53.8 55.2----
2024-02-28 03:00 pmWNW 7.0 11.1------ 54.5 54.5----
2024-02-28 02:54 pmWNW 7.0 9.9----30.03- 54.7 54.5----
2024-02-28 02:48 pm W 7.0 13.0----30.03- 54.7 54.5----
2024-02-28 02:42 pmWNW 6.0 9.9----30.03- 54.7 54.5----
2024-02-28 02:36 pmWNW 8.0 9.9----30.03- 54.7 54.5----
2024-02-28 02:30 pm W 6.0 8.0----30.03- 54.9 54.5----
2024-02-28 02:24 pmWNW 7.0 11.1----30.04- 54.3 54.3----
2024-02-28 02:18 pmWNW 8.0 12.0----30.04- 54.5 54.3----
2024-02-28 02:12 pmWNW 8.9 13.0----30.04- 54.3 54.3----
2024-02-28 02:06 pmWNW 11.1 13.0----30.05- 53.8 54.3----
2024-02-28 02:00 pmWNW 8.9 12.0----30.05-0.02 54.0 54.3----
2024-02-28 01:54 pmWNW 8.0 12.0----30.05- 54.0 54.3----
2024-02-28 01:48 pmWNW 9.9 14.0----30.05- 53.8 54.3----
2024-02-28 01:42 pmWNW 9.9 14.0----30.06- 53.8 54.3----
2024-02-28 01:36 pmWNW 11.1 13.0----30.06- 53.8 54.3----
2024-02-28 01:30 pmWNW 9.9 14.0----30.06- 54.0 54.3----
2024-02-28 01:24 pmWNW 9.9 13.0----30.06- 54.0 54.3----
2024-02-28 01:18 pmWNW 8.0 14.0----30.06- 54.1 54.3----
2024-02-28 01:12 pmWNW 8.9 13.0----30.07- 54.0 54.3----
2024-02-28 01:06 pmWNW 8.9 12.0----30.07- 54.1 54.3----
2024-02-28 01:00 pmWNW 8.0 12.0----30.07-0.02 53.8 54.3----
2024-02-28 12:54 pmWNW 8.9 12.0----30.07- 53.6 54.1----
2024-02-28 12:48 pmWNW 8.9 12.0----30.07- 53.8 54.1----
2024-02-28 12:42 pmWNW 8.9 12.0----30.07- 53.8 54.1----
2024-02-28 12:36 pmWNW 8.9 12.0----30.07- 54.0 54.1----
2024-02-28 12:30 pmWNW 6.0 9.9----30.07- 54.3 54.1----
2024-02-28 12:24 pmWNW 7.0 9.9----30.07- 54.0 54.1----
2024-02-28 12:18 pmWNW 7.0 11.1----30.08- 53.8 54.1----
2024-02-28 12:12 pmWNW 7.0 12.0----30.08- 53.6 54.1----
2024-02-28 12:06 pmWNW 8.0 12.0----30.08- 53.4 54.1----
2024-02-28 12:00 pmWNW 8.0 12.0----30.09-0.01 53.2 54.0----
2024-02-28 11:54 amWNW 8.0 9.9----30.08- 53.4 54.0----
2024-02-28 11:48 amWNW 8.0 9.9----30.08- 53.4 54.0----
2024-02-28 11:42 amWNW 7.0 11.1----30.08- 53.2 54.0----
2024-02-28 11:36 amWNW 8.0 11.1----30.08- 53.1 54.0----
2024-02-28 11:30 am W 8.9 9.9----30.08- 53.1 54.0----
2024-02-28 11:24 amWNW 8.9 11.1----30.08- 52.9 54.0----
2024-02-28 11:18 amWNW 8.9 13.0----30.08- 52.9 54.0----
2024-02-28 11:12 amWNW 8.9 12.0----30.08- 53.1 53.8----
2024-02-28 11:06 amWNW 11.1 12.0----30.08- 53.4 53.8----
2024-02-28 11:00 amWNW 8.0 9.9----30.07-0.02 54.3 53.8----
2024-02-28 10:54 amWNW 5.1 8.9----30.07- 55.2 53.8----
2024-02-28 10:48 am W 4.1 8.0----30.07- 55.2 53.8----
2024-02-28 10:42 amWNW 6.0 8.0----30.08- 54.7 53.8----
2024-02-28 10:36 amWNW 5.1 8.0----30.08- 54.7 53.8----
2024-02-28 10:30 amWNW 5.1 8.0----30.08- 54.5 53.8----
2024-02-28 10:24 am NW 4.1 8.0----30.08- 54.5 53.6----
2024-02-28 10:18 amWNW 2.9 7.0----30.09- 54.5 53.6----
2024-02-28 10:12 amWNW 5.1 7.0----30.09- 54.3 53.6----
2024-02-28 10:06 amWNW 2.9 6.0----30.09- 54.3 53.6----
2024-02-28 10:00 am NW 4.1 7.0----30.09+0.01 54.0 53.6----
2024-02-28 09:54 amESE 1.9 6.0----30.09- 54.0 53.6----
2024-02-28 09:48 am NW 5.1 7.0----30.09- 53.4 53.4----
2024-02-28 09:42 amWNW 1.9 5.1----30.09- 53.6 53.6----
2024-02-28 09:36 am NW 1.9 4.1----30.09- 53.4 53.4----
2024-02-28 09:30 am NW 1.0 5.1----30.09- 53.2 53.4----
2024-02-28 09:24 am E 1.9 6.0----30.09- 52.9 53.4----
2024-02-28 09:18 amENE 1.9 5.1----30.09- 52.5 53.4----
2024-02-28 09:12 amENE 1.9 5.1----30.09- 52.5 53.4----
2024-02-28 09:06 am E 2.9 6.0----30.09- 52.3 53.4----
2024-02-28 09:00 am SE 1.9 2.9----30.09+0.02 52.3 53.4----
2024-02-28 08:54 am NE 1.9 4.1----30.09- 51.8 53.4----
2024-02-28 08:48 amENE 1.9 4.1----30.09- 51.4 53.4----
2024-02-28 08:42 amENE 2.9 5.1----30.09- 51.1 53.4----
2024-02-28 08:36 amENE 1.9 4.1----30.09- 50.9 53.4----
2024-02-28 08:30 amENE 1.0 2.9----30.09- 50.7 53.4----
2024-02-28 08:24 am E 1.9 4.1----30.09- 49.8 53.4----
2024-02-28 08:18 am E 2.9 5.1----30.09- 49.5 53.4----
2024-02-28 08:12 am E 2.9 5.1----30.09- 48.9 53.2----
2024-02-28 08:06 am E 2.9 5.1----30.09- 48.2 53.2----
2024-02-28 08:00 am E 4.1 5.1----30.09+0.02 47.3 53.2----
2024-02-28 07:54 am E 5.1 6.0----30.09- 47.1 53.6----
2024-02-28 07:48 am E 5.1 5.1----30.09- 46.4 54.5----
2024-02-28 07:42 am E 5.1 6.0----30.09- 45.3 54.3----
2024-02-28 07:36 am E 4.1 6.0----30.09- 44.8 53.6----
2024-02-28 07:30 am E 5.1 6.0----30.09- 44.8 53.2----
2024-02-28 07:24 am E 5.1 6.0----30.09- 44.2 53.2----
2024-02-28 07:18 am E 5.1 6.0----30.08- 44.6 53.2----
2024-02-28 07:12 am E 4.1 6.0----30.08- 44.2 53.2----
2024-02-28 07:06 am E 5.1 6.0----30.08- 44.2 53.2----
2024-02-28 07:00 am E 5.1 6.0----30.08+0.00 44.1 53.2----
2024-02-28 06:54 am E 4.1 5.1----30.08- 46.0 53.2----
2024-02-28 06:48 am E 4.1 5.1----30.08- 45.9 53.4----
2024-02-28 06:42 amENE 2.9 5.1----30.08- 45.0 53.4----
2024-02-28 06:36 am E 4.1 6.0----30.08- 45.0 53.4----
2024-02-28 06:30 am E 5.1 6.0----30.07- 45.5 53.4----
2024-02-28 06:24 am E 5.1 6.0----30.07- 45.7 53.4----
2024-02-28 06:18 am E 5.1 6.0----30.07- 45.5 53.4----
2024-02-28 06:12 am E 4.1 6.0----30.07- 45.0 53.4----
2024-02-28 06:06 am E 4.1 6.0----30.07- 45.5 53.4----
2024-02-28 06:00 am E 5.1 6.0----30.07+0.00 45.7 53.4----
2024-02-28 05:54 am E 4.1 5.1----30.07- 46.0 53.4----
2024-02-28 05:48 am E 2.9 5.1----30.07- 46.0 53.4----
2024-02-28 05:42 am E 2.9 5.1----30.07- 45.9 53.4----
2024-02-28 05:36 am E 2.9 5.1----30.07- 45.5 53.4----
2024-02-28 05:30 am E 4.1 6.0----30.07- 45.3 53.4----
2024-02-28 05:18 am E 5.1 6.0----30.07- 45.5 53.4----
2024-02-28 05:12 am E 5.1 6.0----30.07- 45.5 53.4----
2024-02-28 05:06 am E 5.1 7.0----30.07- 45.0 53.4----
2024-02-28 05:00 am E 5.1 8.0----30.07-0.01 45.3 53.6----
2024-02-28 04:48 am E 5.1 7.0----30.07- 45.5 53.6----
2024-02-28 04:42 am E 5.1 7.0----30.07- 45.1 53.6----
2024-02-28 04:36 am E 5.1 6.0----30.07- 45.1 53.4----
2024-02-28 04:30 am E 5.1 6.0----30.07- 45.1 53.6----
2024-02-28 04:24 am E 5.1 6.0----30.07- 45.0 53.6----
2024-02-28 04:18 am E 5.1 6.0----30.08- 45.0 53.6----
2024-02-28 04:12 am E 5.1 6.0----30.08- 45.0 53.6----
2024-02-28 04:06 am E 5.1 6.0----30.07- 45.1 53.6----
2024-02-28 04:00 am E 5.1 5.1----30.08-0.01 44.8 53.6----
2024-02-28 03:48 am E 5.1 6.0----30.08- 45.3 53.6----
2024-02-28 03:42 am E 5.1 6.0----30.07- 45.3 53.6----
2024-02-28 03:36 am E 4.1 5.1----30.07- 45.5 53.6----
2024-02-28 03:30 am E 4.1 6.0----30.07- 45.3 53.6----
2024-02-28 03:24 am E 4.1 5.1----30.08- 45.5 53.6----
2024-02-28 03:18 am E 5.1 6.0----30.08- 45.5 53.6----
2024-02-28 03:12 am E 5.1 6.0----30.08- 45.7 53.6----
2024-02-28 03:06 am E 4.1 5.1----30.08-- 53.8----
2024-02-28 03:00 am E 4.1 7.0----30.08-0.02 45.9 53.6----
2024-02-28 02:54 am E 2.9 5.1----30.08- 45.9 53.6----
2024-02-28 02:42 am E 4.1 6.0----30.08- 46.2 53.8----
2024-02-28 02:36 am E 2.9 5.1----30.08- 46.0 53.8----
2024-02-28 02:30 am E 2.9 5.1----30.08- 46.0 53.8----
2024-02-28 02:18 amESE 2.9 5.1----30.08- 46.2 53.8----
2024-02-28 02:12 am E 2.9 5.1----30.09- 46.4 53.8----
2024-02-28 02:06 amESE 2.9 5.1----30.09- 46.4 53.8----
2024-02-28 02:00 am E 1.9 5.1----30.09-0.02 46.4 53.8----
2024-02-28 01:54 am E 4.1 6.0----30.09- 46.2 53.8----
2024-02-28 01:48 am E 4.1 5.1----30.09- 46.2 53.8----
2024-02-28 01:42 am E 1.9 5.1----30.09- 46.0 54.0----
2024-02-28 01:36 am E 5.1 8.0----30.09- 46.0 53.8----
2024-02-28 01:30 am E 4.1 5.1----30.09- 46.8 53.8----
2024-02-28 01:24 am E 2.9 5.1----30.09- 46.4 53.8----
2024-02-28 01:12 am E 2.9 4.1----30.09- 46.4 54.0----
2024-02-28 01:00 am E 2.9 5.1----30.09-0.01 46.6 54.0----
2024-02-28 12:54 amENE 2.9 6.0----30.09- 46.4 53.8----
2024-02-28 12:42 am E 2.9 5.1----30.10- 46.9 54.0----
2024-02-28 12:36 am E 4.1 6.0----30.10- 46.8 54.0----
2024-02-28 12:30 am E 4.1 7.0----30.10-------
2024-02-28 12:18 am E 4.1 6.0----30.10- 47.5 54.0----
2024-02-28 12:12 am E 4.1 6.0----30.10- 47.7 54.0----
2024-02-28 12:06 am E 1.9 5.1----30.10- 48.2 54.0----
2024-02-28 12:00 amENE 2.9 5.1----30.10+0.00 48.4 54.0----
2024-02-27 11:48 pmENE 1.9 4.1----30.10- 49.3 54.0----
2024-02-27 11:42 pm SE 1.0 2.9----30.10- 49.5 54.0----
2024-02-27 11:30 pmESE 1.9 2.9----30.10- 48.9 54.0----
2024-02-27 11:24 pm E 1.9 4.1----30.10- 48.4 54.0----
2024-02-27 11:12 pmENE 2.9 6.0----30.11- 47.8 54.1----
2024-02-27 11:00 pm E 2.9 4.1----30.11+0.00 48.9 54.1----
2024-02-27 10:54 pm- 0.0 2.9----30.11- 49.1 54.1----